• In Uzbekistan
  • List of Countries
  • For 7 days
  • Water Temperature
  • Satellite Maps
  • Weather Map
  • Weather Widgets
  • user-avatar
    Login

    Hourly Weather Yerevan

    Today, 4 December, Sunday

    Time Temperature Precipitation Wind Pressure Humidity
    00:00 +3°C° 0 mm 2 mps 693 mmHg 72%
    01:00 +3°C° 0 mm 2 mps 694 mmHg 72%
    02:00 +3°C° 0 mm 2 mps 694 mmHg 73%
    03:00 +3°C° 0 mm 3 mps 693 mmHg 71%
    04:00 +3°C° 0 mm 3 mps 693 mmHg 72%
    05:00 +4°C° 0 mm 2 mps 694 mmHg 73%
    06:00 +3°C° 0 mm 2 mps 694 mmHg 75%
    07:00 +3°C° 0 mm 3 mps 694 mmHg 71%
    08:00 +4°C° 0 mm 3 mps 694 mmHg 68%
    09:00 +5°C° 0 mm 3 mps 694 mmHg 65%
    10:00 +7°C° 0.1 mm 3 mps 693 mmHg 62%
    11:00 +8°C° 0.1 mm 3 mps 693 mmHg 58%
    12:00 +8°C° 0.1 mm 4 mps 693 mmHg 55%
    13:00 +9°C° 0.1 mm 3 mps 693 mmHg 56%
    14:00 +9°C° 0.1 mm 3 mps 693 mmHg 57%
    15:00 +9°C° 0.1 mm 3 mps 692 mmHg 58%
    16:00 +7°C° 0 mm 3 mps 693 mmHg 63%
    17:00 +6°C° 0 mm 2 mps 693 mmHg 68%
    18:00 +5°C° 0 mm 2 mps 693 mmHg 72%
    19:00 +5°C° 0 mm 2 mps 693 mmHg 73%
    20:00 +5°C° 0 mm 2 mps 693 mmHg 73%
    21:00 +4°C° 0 mm 2 mps 693 mmHg 74%
    22:00 +4°C° 0 mm 2 mps 693 mmHg 74%
    23:00 +4°C° 0 mm 2 mps 693 mmHg 74%

    Tomorrow, 5 December, Monday

    Time Temperature Precipitation Wind Pressure Humidity
    00:00 +4°C° 0 mm 2 mps 693 mmHg 75%
    01:00 +4°C° 0 mm 2 mps 693 mmHg 75%
    02:00 +4°C° 0 mm 1 mps 693 mmHg 75%
    03:00 +4°C° 0 mm 1 mps 693 mmHg 75%
    04:00 +4°C° 0 mm 1 mps 693 mmHg 75%
    05:00 +4°C° 0 mm 1 mps 692 mmHg 75%
    06:00 +4°C° 0 mm 1 mps 692 mmHg 75%
    07:00 +5°C° 0 mm 1 mps 692 mmHg 72%
    08:00 +6°C° 0 mm 1 mps 692 mmHg 69%
    09:00 +7°C° 0 mm 1 mps 693 mmHg 66%
    10:00 +6°C° 0.1 mm 2 mps 692 mmHg 63%
    11:00 +7°C° 0.1 mm 2 mps 692 mmHg 60%
    12:00 +8°C° 0.1 mm 2 mps 691 mmHg 57%
    13:00 +8°C° 0.2 mm 2 mps 691 mmHg 58%
    14:00 +8°C° 0.2 mm 2 mps 690 mmHg 60%
    15:00 +8°C° 0.2 mm 2 mps 690 mmHg 62%
    16:00 +7°C° 0.4 mm 2 mps 690 mmHg 66%
    17:00 +6°C° 0.4 mm 2 mps 690 mmHg 70%
    18:00 +6°C° 0.4 mm 1 mps 690 mmHg 74%
    19:00 +6°C° 0.5 mm 1 mps 690 mmHg 75%
    20:00 +6°C° 0.5 mm 1 mps 690 mmHg 77%
    21:00 +6°C° 0.5 mm 1 mps 690 mmHg 78%
    22:00 +5°C° 0.2 mm 1 mps 690 mmHg 78%
    23:00 +4°C° 0.2 mm 1 mps 690 mmHg 78%

    Day after tomorrow, 6 December, Tuesday

    Time Temperature Precipitation Wind Pressure Humidity
    00:00 +4°C° 0.2 mm 1 mps 691 mmHg 79%
    01:00 +2°C° 0.1 mm 2 mps 691 mmHg 77%
    02:00 +2°C° 0.1 mm 2 mps 691 mmHg 75%
    03:00 0°C° 0.1 mm 3 mps 692 mmHg 73%
    04:00 0°C° 0 mm 3 mps 692 mmHg 71%
    05:00 -1°C° 0 mm 3 mps 692 mmHg 69%
    06:00 -1°C° 0 mm 3 mps 693 mmHg 67%
    07:00 -1°C° 0 mm 3 mps 693 mmHg 64%
    08:00 -1°C° 0 mm 3 mps 694 mmHg 61%
    09:00 -1°C° 0 mm 3 mps 695 mmHg 58%
    10:00 -1°C° 0 mm 3 mps 695 mmHg 55%
    11:00 0°C° 0 mm 3 mps 695 mmHg 51%
    12:00 +1°C° 0 mm 3 mps 695 mmHg 47%
    13:00 +2°C° 0 mm 2 mps 695 mmHg 48%
    14:00 +2°C° 0 mm 2 mps 694 mmHg 48%
    15:00 +3°C° 0 mm 1 mps 694 mmHg 49%
    16:00 +1°C° 0 mm 1 mps 694 mmHg 53%
    17:00 -1°C° 0 mm 1 mps 694 mmHg 57%
    18:00 -3°C° 0 mm 1 mps 694 mmHg 61%
    19:00 -3°C° 0 mm 1 mps 694 mmHg 61%
    20:00 -3°C° 0 mm 1 mps 694 mmHg 61%
    21:00 -3°C° 0 mm 1 mps 695 mmHg 61%
    22:00 -4°C° 0 mm 1 mps 694 mmHg 61%
    23:00 -4°C° 0 mm 1 mps 694 mmHg 61%

    7 December, Wednesday

    Time Temperature Precipitation Wind Pressure Humidity
    00:00 -4°C° 0 mm 1 mps 694 mmHg 61%
    01:00 -4°C° 0 mm 1 mps 694 mmHg 61%
    02:00 -4°C° 0 mm 1 mps 693 mmHg 61%
    03:00 -4°C° 0 mm 1 mps 693 mmHg 61%
    04:00 -4°C° 0 mm 1 mps 693 mmHg 60%
    05:00 -4°C° 0 mm 1 mps 693 mmHg 60%
    06:00 -6°C° 0 mm 1 mps 692 mmHg 59%
    07:00 -3°C° 0 mm 1 mps 693 mmHg 55%
    08:00 -1°C° 0 mm 1 mps 693 mmHg 51%
    09:00 +1°C° 0 mm 1 mps 693 mmHg 47%
    10:00 +3°C° 0 mm 1 mps 693 mmHg 46%
    11:00 +3°C° 0 mm 2 mps 692 mmHg 44%
    12:00 +4°C° 0 mm 2 mps 692 mmHg 42%
    13:00 +4°C° 0 mm 2 mps 691 mmHg 43%
    14:00 +4°C° 0 mm 2 mps 691 mmHg 45%
    15:00 +4°C° 0 mm 2 mps 691 mmHg 47%
    16:00 +2°C° 0 mm 2 mps 690 mmHg 50%
    17:00 0°C° 0 mm 1 mps 690 mmHg 53%
    18:00 -2°C° 0 mm 1 mps 690 mmHg 56%
    19:00 -2°C° 0 mm 1 mps 690 mmHg 55%
    20:00 -2°C° 0 mm 1 mps 690 mmHg 55%
    21:00 -3°C° 0 mm 1 mps 691 mmHg 55%
    22:00 -2°C° 0 mm 1 mps 691 mmHg 55%
    23:00 -2°C° 0 mm 1 mps 691 mmHg 54%

    8 December, Thursday

    Time Temperature Precipitation Wind Pressure Humidity
    00:00 -2°C° 0 mm 1 mps 691 mmHg 54%
    01:00 -2°C° 0 mm 1 mps 691 mmHg 55%
    02:00 -2°C° 0 mm 1 mps 691 mmHg 55%
    03:00 -2°C° 0 mm 1 mps 691 mmHg 55%
    04:00 -2°C° 0 mm 1 mps 691 mmHg 56%
    05:00 -2°C° 0 mm 1 mps 691 mmHg 57%
    06:00 -4°C° 0 mm 2 mps 692 mmHg 58%
    07:00 -3°C° 0 mm 2 mps 692 mmHg 57%
    08:00 -2°C° 0 mm 2 mps 693 mmHg 56%
    09:00 -1°C° 0 mm 2 mps 694 mmHg 54%
    10:00 +1°C° 0 mm 2 mps 694 mmHg 52%
    11:00 0°C° 0 mm 3 mps 694 mmHg 50%
    12:00 0°C° 0 mm 4 mps 694 mmHg 47%
    13:00 0°C° 0 mm 4 mps 694 mmHg 48%
    14:00 0°C° 0 mm 3 mps 694 mmHg 48%
    15:00 0°C° 0 mm 3 mps 694 mmHg 48%
    16:00 -2°C° 0 mm 3 mps 694 mmHg 53%
    17:00 -3°C° 0 mm 2 mps 694 mmHg 57%
    18:00 -5°C° 0 mm 2 mps 694 mmHg 61%
    19:00 -3°C° 0 mm 1 mps 694 mmHg 61%
    20:00 -3°C° 0 mm 1 mps 695 mmHg 61%
    21:00 -3°C° 0 mm 1 mps 695 mmHg 62%
    22:00 -3°C° 0 mm 1 mps 695 mmHg 62%
    23:00 -3°C° 0 mm 1 mps 695 mmHg 62%

    9 December, Friday

    Time Temperature Precipitation Wind Pressure Humidity
    00:00 -3°C° 0 mm 1 mps 695 mmHg 62%
    01:00 -3°C° 0 mm 1 mps 694 mmHg 62%
    02:00 -4°C° 0 mm 1 mps 694 mmHg 63%
    03:00 -4°C° 0 mm 1 mps 694 mmHg 63%
    04:00 -4°C° 0 mm 1 mps 694 mmHg 64%
    05:00 -4°C° 0 mm 1 mps 694 mmHg 65%
    06:00 -4°C° 0 mm 1 mps 694 mmHg 65%
    07:00 -3°C° 0 mm 1 mps 694 mmHg 62%
    08:00 -2°C° 0 mm 1 mps 695 mmHg 60%
    09:00 -2°C° 0 mm 1 mps 695 mmHg 57%
    10:00 0°C° 0 mm 1 mps 695 mmHg 54%
    11:00 +1°C° 0 mm 1 mps 694 mmHg 50%
    12:00 +2°C° 0 mm 1 mps 694 mmHg 47%
    13:00 +2°C° 0 mm 1 mps 693 mmHg 48%
    14:00 +2°C° 0 mm 1 mps 693 mmHg 49%
    15:00 +2°C° 0 mm 1 mps 693 mmHg 50%
    16:00 +1°C° 0 mm 1 mps 693 mmHg 55%
    17:00 -1°C° 0 mm 1 mps 692 mmHg 60%
    18:00 -3°C° 0 mm 1 mps 692 mmHg 64%
    19:00 -3°C° 0 mm 1 mps 692 mmHg 64%
    20:00 -4°C° 0 mm 1 mps 692 mmHg 64%
    21:00 -4°C° 0 mm 1 mps 692 mmHg 64%
    22:00 -4°C° 0 mm 1 mps 691 mmHg 64%
    23:00 -4°C° 0 mm 1 mps 691 mmHg 64%
    Show more